| time (UTC) | temp F | wind direction | speed knots | gust knots | rain 1hr in | rain 24hr in | rain mn in | humidity % | barometer mb |
| 20260904144431 | 80 | 225 | 1.7 | 1.7 | 0.00 | 0.06 | 0.06 | 90 | 1016.6 |
| 20260904143927 | 80 | 191 | 0.9 | 1.7 | 0.00 | 0.06 | 0.06 | 91 | 1016.3 |
| 20260904143423 | 80 | 205 | 6.1 | 7.0 | 0.00 | 0.06 | 0.06 | 91 | 1016.4 |
| 20260904142920 | 80 | 237 | 2.6 | 2.6 | 0.00 | 0.06 | 0.06 | 92 | 1016.5 |
| 20260904142415 | 80 | 203 | 2.6 | 2.6 | 0.00 | 0.06 | 0.06 | 92 | 1016.4 |
| 20260904141909 | 80 | 228 | 3.5 | 3.5 | 0.00 | 0.06 | 0.06 | 92 | 1016.4 |
| 20260904141404 | 80 | 223 | 1.7 | 1.7 | 0.00 | 0.06 | 0.06 | 93 | 1016.5 |
| 20260904140901 | 79 | 233 | 2.6 | 3.5 | 0.00 | 0.06 | 0.06 | 93 | 1016.4 |
| 20260904140355 | 79 | 207 | 2.6 | 3.5 | 0.00 | 0.06 | 0.06 | 94 | 1016.4 |
| 20260904135854 | 79 | 270 | 3.5 | 5.2 | 0.00 | 0.06 | 0.06 | 95 | 1016.2 |
| 20260904135349 | 79 | 274 | 1.7 | 2.6 | 0.00 | 0.06 | 0.06 | 96 | 1016.3 |
| 20260904134846 | 78 | 218 | 3.5 | 3.5 | 0.00 | 0.06 | 0.06 | 96 | 1016.3 |
| 20260904134345 | 78 | 193 | 1.7 | 1.7 | 0.00 | 0.06 | 0.06 | 96 | 1016.3 |
| 20260904133845 | 78 | 234 | 0.0 | 0.0 | 0.07 | 0.06 | 0.06 | 96 | 1016.2 |
| 20260904133340 | 78 | 203 | 0.9 | 0.9 | 0.24 | 0.06 | 0.06 | 96 | 1016.1 |
| 20260904132835 | 79 | 207 | 3.5 | 5.2 | 0.28 | 0.05 | 0.05 | 95 | 1016.0 |
| 20260904132330 | 79 | 211 | 6.1 | 7.8 | 0.17 | 0.03 | 0.03 | 94 | 1016.1 |
| 20260904131830 | 79 | 185 | 3.5 | 5.2 | 0.00 | 0.00 | 0.00 | 94 | 1016.1 |
| 20260904131325 | 79 | 213 | 5.2 | 7.0 | 0.00 | 0.00 | 0.00 | 93 | 1016.1 |
| 20260904130820 | 79 | 199 | 2.6 | 2.6 | 0.00 | 0.00 | 0.00 | 94 | 1016.3 |
| 20260904130319 | 79 | 205 | 2.6 | 2.6 | 0.00 | 0.00 | 0.00 | 94 | 1016.1 |
| 20260904125815 | 79 | 214 | 3.5 | 3.5 | 0.00 | 0.00 | 0.00 | 94 | 1016.2 |
| 20260904125311 | 79 | 214 | 2.6 | 2.6 | 0.00 | 0.00 | 0.00 | 94 | 1016.3 |
| 20260904124810 | 79 | 205 | 4.3 | 5.2 | 0.00 | 0.00 | 0.00 | 94 | 1016.2 |
| 20260904124307 | 79 | 179 | 2.6 | 3.5 | 0.00 | 0.00 | 0.00 | 93 | 1016.4 |
| 20260904123802 | 79 | 156 | 2.6 | 2.6 | 0.00 | 0.00 | 0.00 | 93 | 1016.2 |
| 20260904123257 | 79 | 124 | 0.9 | 1.7 | 0.00 | 0.00 | 0.00 | 93 | 1016.2 |
| 20260904122752 | 79 | 189 | 1.7 | 1.7 | 0.00 | 0.00 | 0.00 | 92 | 1016.2 |
| 20260904122251 | 79 | 160 | 2.6 | 2.6 | 0.00 | 0.00 | 0.00 | 92 | 1016.2 |
| 20260904121747 | 79 | 184 | 1.7 | 2.6 | 0.00 | 0.00 | 0.00 | 92 | 1016.0 |
| 20260904121243 | 79 | 157 | 3.5 | 5.2 | 0.00 | 0.00 | 0.00 | 92 | 1015.8 |
| 20260904120739 | 79 | 133 | 2.6 | 3.5 | 0.00 | 0.00 | 0.00 | 92 | 1015.8 |
| 20260904120235 | 79 | 104 | 1.7 | 2.6 | 0.00 | 0.00 | 0.00 | 91 | 1015.9 |
| 20260904115735 | 79 | 158 | 1.7 | 2.6 | 0.00 | 0.00 | 0.00 | 91 | 1015.8 |
| 20260904115229 | 79 | 183 | 1.7 | 2.6 | 0.00 | 0.00 | 0.00 | 91 | 1015.9 |
| 20260904114724 | 79 | 129 | 3.5 | 6.1 | 0.00 | 0.00 | 0.00 | 91 | 1015.6 |
| 20260904114219 | 79 | 143 | 1.7 | 2.6 | 0.00 | 0.00 | 0.00 | 91 | 1015.5 |
| 20260904113714 | 79 | 94 | 5.2 | 6.1 | 0.00 | 0.00 | 0.00 | 91 | 1015.6 |
| 20260904113213 | 79 | 154 | 3.5 | 6.1 | 0.00 | 0.00 | 0.00 | 91 | 1015.4 |
| 20260904112709 | 79 | 112 | 2.6 | 3.5 | 0.00 | 0.00 | 0.00 | 91 | 1015.3 |
| 20260904112204 | 79 | 73 | 2.6 | 2.6 | 0.00 | 0.00 | 0.00 | 91 | 1015.4 |
| 20260904111659 | 79 | 69 | 4.3 | 6.1 | 0.00 | 0.00 | 0.00 | 91 | 1015.3 |
| 20260904111154 | 79 | 113 | 3.5 | 5.2 | 0.00 | 0.00 | 0.00 | 90 | 1015.4 |
| 20260904110649 | 79 | 89 | 2.6 | 2.6 | 0.00 | 0.00 | 0.00 | 90 | 1015.2 |
| 20260904110143 | 79 | 111 | 3.5 | 5.2 | 0.00 | 0.00 | 0.00 | 90 | 1015.0 |
| 20260904105638 | 79 | 144 | 3.5 | 5.2 | 0.00 | 0.00 | 0.00 | 90 | 1015.3 |
| 20260904105133 | 79 | 117 | 2.6 | 3.5 | 0.00 | 0.00 | 0.00 | 90 | 1015.2 |
| 20260904104629 | 79 | 84 | 4.3 | 6.1 | 0.00 | 0.00 | 0.00 | 90 | 1015.1 |
| 20260904104124 | 79 | 91 | 1.7 | 3.5 | 0.00 | 0.00 | 0.00 | 89 | 1015.0 |
| 20260904103621 | 80 | 143 | 3.5 | 5.2 | 0.00 | 0.00 | 0.00 | 89 | 1015.0 |
| 20260904103116 | 80 | 135 | 5.2 | 6.1 | 0.00 | 0.00 | 0.00 | 89 | 1015.0 |
| 20260904102612 | 80 | 126 | 2.6 | 2.6 | 0.00 | 0.00 | 0.00 | 89 | 1015.2 |
| 20260904102107 | 80 | 119 | 2.6 | 2.6 | 0.00 | 0.00 | 0.00 | 89 | 1015.0 |
| 20260904101603 | 80 | 171 | 3.5 | 3.5 | 0.00 | 0.00 | 0.00 | 89 | 1015.0 |
| 20260904101059 | 80 | 200 | 3.5 | 6.1 | 0.00 | 0.00 | 0.00 | 88 | 1014.9 |
| 20260904100554 | 80 | 168 | 6.1 | 7.0 | 0.00 | 0.00 | 0.00 | 88 | 1014.9 |
| 20260904100049 | 80 | 91 | 2.6 | 3.5 | 0.00 | 0.00 | 0.00 | 88 | 1014.7 |
| 20260904095544 | 80 | 136 | 2.6 | 3.5 | 0.00 | 0.00 | 0.00 | 87 | 1014.9 |
| 20260904095039 | 80 | 145 | 3.5 | 3.5 | 0.00 | 0.00 | 0.00 | 87 | 1014.8 |
| 20260904094534 | 80 | 124 | 3.5 | 6.1 | 0.00 | 0.00 | 0.00 | 87 | 1014.8 |
| 20260904094029 | 80 | 162 | 3.5 | 3.5 | 0.00 | 0.00 | 0.00 | 86 | 1014.7 |
| 20260904093526 | 80 | 147 | 1.7 | 1.7 | 0.00 | 0.00 | 0.00 | 86 | 1014.7 |
| 20260904093026 | 80 | 180 | 4.3 | 5.2 | 0.00 | 0.00 | 0.00 | 86 | 1014.5 |
| 20260904092521 | 81 | 201 | 2.6 | 2.6 | 0.00 | 0.00 | 0.00 | 86 | 1014.7 |
| 20260904092018 | 81 | 178 | 4.3 | 5.2 | 0.00 | 0.00 | 0.00 | 86 | 1014.6 |
| 20260904091514 | 81 | 146 | 3.5 | 5.2 | 0.00 | 0.00 | 0.00 | 86 | 1014.8 |
| 20260904091013 | 81 | 204 | 5.2 | 7.8 | 0.00 | 0.00 | 0.00 | 86 | 1014.9 |
| 20260904090508 | 81 | 156 | 3.5 | 5.2 | 0.00 | 0.00 | 0.00 | 86 | 1014.8 |
| 20260904090004 | 81 | 170 | 4.3 | 5.2 | 0.00 | 0.00 | 0.00 | 86 | 1014.8 |
| 20260904085459 | 81 | 132 | 3.5 | 3.5 | 0.00 | 0.00 | 0.00 | 86 | 1014.8 |
| 20260904084958 | 81 | 174 | 7.0 | 8.7 | 0.00 | 0.00 | 0.00 | 86 | 1014.9 |
| 20260904084454 | 81 | 114 | 4.3 | 7.0 | 0.00 | 0.00 | 0.00 | 86 | 1014.8 |
| 20260904083950 | 81 | 177 | 6.1 | 7.0 | 0.00 | 0.00 | 0.00 | 86 | 1014.7 |
| 20260904083446 | 81 | 199 | 3.5 | 3.5 | 0.00 | 0.00 | 0.00 | 86 | 1014.8 |
| 20260904082942 | 81 | 168 | 4.3 | 7.0 | 0.00 | 0.00 | 0.00 | 86 | 1014.7 |
| 20260904082437 | 81 | 183 | 4.3 | 6.1 | 0.00 | 0.00 | 0.00 | 86 | 1014.7 |
| 20260904081931 | 81 | 176 | 3.5 | 3.5 | 0.00 | 0.00 | 0.00 | 86 | 1014.7 |
| 20260904081427 | 81 | 174 | 9.6 | 11.3 | 0.00 | 0.00 | 0.00 | 86 | 1014.7 |
| 20260904080923 | 81 | 146 | 7.8 | 8.7 | 0.00 | 0.00 | 0.00 | 86 | 1014.8 |
| 20260904080418 | 81 | 129 | 7.8 | 8.7 | 0.00 | 0.00 | 0.00 | 86 | 1014.8 |
| 20260904075914 | 81 | 174 | 1.7 | 1.7 | 0.00 | 0.00 | 0.00 | 85 | 1014.6 |
| 20260904075410 | 81 | 141 | 3.5 | 3.5 | 0.00 | 0.00 | 0.00 | 85 | 1014.7 |
| 20260904074908 | 81 | 130 | 3.5 | 3.5 | 0.00 | 0.00 | 0.00 | 85 | 1014.6 |
| 20260904074403 | 81 | 184 | 6.1 | 7.8 | 0.00 | 0.00 | 0.00 | 85 | 1014.8 |
| 20260904073859 | 81 | 174 | 10.4 | 12.2 | 0.00 | 0.00 | 0.00 | 85 | 1014.6 |
| 20260904073355 | 81 | 177 | 5.2 | 7.8 | 0.00 | 0.00 | 0.00 | 85 | 1014.7 |
| 20260904072850 | 81 | 165 | 4.3 | 5.2 | 0.00 | 0.00 | 0.00 | 85 | 1014.6 |
| 20260904072345 | 81 | 134 | 6.1 | 8.7 | 0.00 | 0.00 | 0.00 | 85 | 1014.9 |
| 20260904071841 | 81 | 181 | 5.2 | 7.0 | 0.00 | 0.00 | 0.00 | 84 | 1014.7 |
| 20260904071335 | 81 | 160 | 5.2 | 7.8 | 0.00 | 0.00 | 0.00 | 84 | 1015.0 |
| 20260904070825 | 81 | 163 | 5.2 | 6.1 | 0.00 | 0.00 | 0.00 | 84 | 1015.1 |
| 20260904070323 | 81 | 167 | 4.3 | 7.0 | 0.00 | 0.00 | 0.00 | 84 | 1015.1 |
| 20260904065818 | 81 | 133 | 3.5 | 5.2 | 0.00 | 0.00 | 0.00 | 84 | 1015.3 |
| 20260904065314 | 81 | 151 | 3.5 | 5.2 | 0.00 | 0.00 | 0.00 | 84 | 1015.3 |
| 20260904064809 | 81 | 133 | 5.2 | 7.0 | 0.00 | 0.00 | 0.00 | 84 | 1015.2 |
| 20260904064305 | 81 | 169 | 5.2 | 7.8 | 0.00 | 0.00 | 0.00 | 84 | 1015.1 |
| 20260904063801 | 81 | 166 | 3.5 | 5.2 | 0.00 | 0.00 | 0.00 | 84 | 1015.2 |
| 20260904063257 | 81 | 159 | 5.2 | 6.1 | 0.00 | 0.00 | 0.00 | 84 | 1014.9 |
| 20260904062752 | 81 | 192 | 1.7 | 1.7 | 0.00 | 0.00 | 0.00 | 84 | 1015.1 |
| 20260904062248 | 81 | 192 | 5.2 | 7.0 | 0.00 | 0.00 | 0.00 | 84 | 1015.0 |
| 20260904061743 | 81 | 105 | 2.6 | 2.6 | 0.00 | 0.00 | 0.00 | 83 | 1015.0 |
| 20260904061239 | 81 | 123 | 5.2 | 7.0 | 0.00 | 0.00 | 0.00 | 84 | 1015.1 |
| 20260904060736 | 81 | 171 | 3.5 | 3.5 | 0.00 | 0.00 | 0.00 | 83 | 1014.9 |
| 20260904060231 | 81 | 135 | 1.7 | 2.6 | 0.00 | 0.00 | 0.00 | 83 | 1015.1 |
| 20260904055726 | 81 | 131 | 7.8 | 7.8 | 0.00 | 0.00 | 0.00 | 84 | 1015.1 |
| 20260904055220 | 80 | 143 | 5.2 | 7.0 | 0.00 | 0.00 | 0.00 | 84 | 1015.4 |
| 20260904054716 | 80 | 118 | 4.3 | 6.1 | 0.00 | 0.00 | 0.00 | 83 | 1015.2 |
| 20260904054212 | 81 | 125 | 7.0 | 7.8 | 0.00 | 0.00 | 0.00 | 83 | 1015.1 |
| 20260904053707 | 81 | 115 | 1.7 | 1.7 | 0.00 | 0.00 | 0.00 | 83 | 1015.1 |
| 20260904053202 | 81 | 84 | 6.1 | 7.8 | 0.00 | 0.00 | 0.00 | 83 | 1015.2 |
| 20260904052658 | 80 | 120 | 5.2 | 7.0 | 0.00 | 0.00 | 0.00 | 83 | 1015.2 |
| 20260904052154 | 80 | 131 | 4.3 | 6.1 | 0.00 | 0.00 | 0.00 | 83 | 1015.0 |
| 20260904051650 | 80 | 154 | 6.1 | 7.8 | 0.00 | 0.00 | 0.00 | 83 | 1014.9 |
| 20260904051145 | 80 | 140 | 5.2 | 7.0 | 0.00 | 0.00 | 0.00 | 83 | 1014.9 |
| 20260904050640 | 80 | 145 | 7.0 | 8.7 | 0.00 | 0.00 | 0.00 | 83 | 1014.9 |
| 20260904050136 | 80 | 130 | 4.3 | 8.7 | 0.00 | 0.00 | 0.00 | 83 | 1014.9 |
| 20260904045630 | 80 | 138 | 5.2 | 6.1 | 0.00 | 0.00 | 0.00 | 83 | 1015.0 |
| 20260904045125 | 80 | 82 | 3.5 | 5.2 | 0.00 | 0.00 | 0.00 | 83 | 1015.0 |
| 20260904044621 | 80 | 159 | 5.2 | 8.7 | 0.00 | 0.00 | 0.00 | 83 | 1015.1 |
| 20260904044117 | 80 | 119 | 5.2 | 6.1 | 0.00 | 0.00 | 0.00 | 83 | 1014.9 |
| 20260904043614 | 80 | 108 | 7.8 | 8.7 | 0.00 | 0.00 | 0.00 | 83 | 1015.0 |
| 20260904043109 | 80 | 78 | 2.6 | 3.5 | 0.00 | 0.00 | 0.00 | 82 | 1015.0 |
| 20260904042605 | 81 | 149 | 4.3 | 7.0 | 0.00 | 0.00 | 0.00 | 82 | 1015.0 |
| 20260904042100 | 81 | 139 | 3.5 | 6.1 | 0.00 | 0.00 | 0.00 | 82 | 1015.0 |
| 20260904041556 | 81 | 126 | 4.3 | 5.2 | 0.00 | 0.00 | 0.00 | 82 | 1015.0 |
| 20260904041052 | 81 | 131 | 3.5 | 3.5 | 0.00 | 0.00 | 0.00 | 82 | 1015.0 |
| 20260904040552 | 81 | 109 | 3.5 | 3.5 | 0.00 | 0.00 | 0.00 | 82 | 1014.9 |
| 20260904040049 | 81 | 94 | 6.1 | 9.6 | 0.00 | 0.00 | 0.00 | 81 | 1014.9 |
| 20260904035549 | 81 | 166 | 2.6 | 5.2 | 0.00 | 0.00 | 0.00 | 81 | 1014.9 |
| 20260904035043 | 81 | 101 | 4.3 | 6.1 | 0.00 | 0.00 | 0.00 | 81 | 1014.7 |
| 20260904034538 | 81 | 118 | 5.2 | 7.0 | 0.00 | 0.00 | 0.00 | 81 | 1015.0 |
| 20260904034033 | 81 | 121 | 4.3 | 5.2 | 0.00 | 0.00 | 0.00 | 80 | 1014.7 |
| 20260904033529 | 81 | 113 | 5.2 | 7.8 | 0.00 | 0.00 | 0.00 | 80 | 1014.9 |
| 20260904033027 | 81 | 127 | 5.2 | 7.0 | 0.00 | 0.00 | 0.00 | 79 | 1014.9 |
| 20260904032522 | 81 | 125 | 6.1 | 7.8 | 0.00 | 0.00 | 0.00 | 79 | 1014.6 |
| 20260904032020 | 81 | 122 | 9.6 | 9.6 | 0.00 | 0.00 | 0.00 | 79 | 1014.7 |
| 20260904031515 | 81 | 120 | 7.8 | 9.6 | 0.00 | 0.00 | 0.00 | 79 | 1014.8 |
| 20260904031011 | 82 | 119 | 8.7 | 12.2 | 0.00 | 0.00 | 0.00 | 78 | 1014.7 |
| 20260904030507 | 82 | 94 | 7.8 | 7.8 | 0.00 | 0.00 | 0.00 | 78 | 1014.6 |
| 20260904030002 | 82 | 187 | 8.7 | 11.3 | 0.00 | 0.00 | 0.00 | 77 | 1014.5 |
| 20260904025458 | 82 | 82 | 5.2 | 7.0 | 0.00 | 0.00 | 0.00 | 77 | 1014.6 |
| 20260904024958 | 82 | 107 | 12.2 | 13.9 | 0.00 | 0.00 | 0.00 | 76 | 1014.6 |
| 20260904024453 | 82 | 87 | 3.5 | 3.5 | 0.00 | 0.00 | 0.00 | 75 | 1014.4 |
| 20260904023949 | 82 | 150 | 5.2 | 6.1 | 0.00 | 0.00 | 0.00 | 75 | 1014.5 |
| 20260904023445 | 82 | 96 | 5.2 | 7.0 | 0.00 | 0.00 | 0.00 | 74 | 1014.4 |
| 20260904022945 | 83 | 130 | 1.7 | 2.6 | 0.00 | 0.00 | 0.00 | 74 | 1014.4 |
| 20260904022441 | 83 | 119 | 7.8 | 11.3 | 0.00 | 0.00 | 0.00 | 74 | 1014.2 |
| 20260904021937 | 83 | 94 | 5.2 | 7.0 | 0.00 | 0.00 | 0.00 | 73 | 1014.1 |
| 20260904021433 | 83 | 110 | 7.0 | 8.7 | 0.00 | 0.00 | 0.00 | 73 | 1014.1 |
| 20260904020927 | 83 | 84 | 5.2 | 7.0 | 0.00 | 0.00 | 0.00 | 73 | 1013.9 |
| 20260904020422 | 83 | 123 | 3.5 | 6.1 | 0.00 | 0.00 | 0.00 | 72 | 1013.8 |
| 20260904015921 | 83 | 100 | 5.2 | 7.8 | 0.00 | 0.00 | 0.00 | 72 | 1013.9 |
| 20260904015417 | 83 | 168 | 1.7 | 2.6 | 0.00 | 0.00 | 0.00 | 72 | 1013.9 |
| 20260904014915 | 84 | 76 | 1.7 | 2.6 | 0.00 | 0.00 | 0.00 | 71 | 1013.9 |
| 20260904014411 | 84 | 83 | 10.4 | 12.2 | 0.00 | 0.00 | 0.00 | 71 | 1013.7 |
| 20260904013906 | 84 | 83 | 4.3 | 5.2 | 0.00 | 0.00 | 0.00 | 70 | 1013.8 |
| 20260904013402 | 84 | 82 | 5.2 | 7.8 | 0.00 | 0.00 | 0.00 | 70 | 1013.8 |
| 20260904012857 | 84 | 95 | 4.3 | 5.2 | 0.00 | 0.00 | 0.00 | 70 | 1013.6 |
| 20260904012352 | 84 | 77 | 2.6 | 3.5 | 0.00 | 0.00 | 0.00 | 69 | 1013.6 |
| 20260904011851 | 84 | 91 | 6.1 | 7.8 | 0.00 | 0.00 | 0.00 | 69 | 1013.6 |
| 20260904011346 | 84 | 103 | 9.6 | 13.0 | 0.00 | 0.00 | 0.00 | 69 | 1013.2 |
| 20260904010841 | 84 | 95 | 3.5 | 3.5 | 0.00 | 0.00 | 0.00 | 69 | 1013.4 |
| 20260904010338 | 85 | 168 | 4.3 | 6.1 | 0.00 | 0.00 | 0.00 | 69 | 1013.2 |
| 20260904005833 | 85 | 115 | 5.2 | 7.8 | 0.00 | 0.00 | 0.00 | 69 | 1013.5 |
| 20260904005328 | 85 | 103 | 4.3 | 7.8 | 0.00 | 0.00 | 0.00 | 68 | 1013.4 |
| 20260904004823 | 85 | 152 | 5.2 | 7.0 | 0.00 | 0.00 | 0.00 | 68 | 1013.4 |
| 20260904004320 | 85 | 114 | 4.3 | 6.1 | 0.00 | 0.00 | 0.00 | 68 | 1013.4 |
| 20260904003814 | 85 | 96 | 9.6 | 12.2 | 0.00 | 0.00 | 0.00 | 68 | 1013.5 |
| 20260904003311 | 86 | 88 | 7.0 | 9.6 | 0.00 | 0.00 | 0.00 | 67 | 1013.4 |
| 20260904002806 | 86 | 123 | 7.8 | 13.0 | 0.00 | 0.00 | 0.00 | 67 | 1013.5 |
| 20260904002306 | 86 | 116 | 5.2 | 7.0 | 0.00 | 0.00 | 0.00 | 67 | 1013.5 |
| 20260904001801 | 86 | 59 | 5.2 | 7.0 | 0.00 | 0.00 | 0.00 | 67 | 1013.2 |
| 20260904001256 | 86 | 102 | 6.1 | 8.7 | 0.00 | 0.00 | 0.00 | 67 | 1013.4 |
| 20260904000751 | 87 | 100 | 4.3 | 8.7 | 0.00 | 0.00 | 0.00 | 66 | 1013.4 |
| 20260904000251 | 87 | 112 | 6.1 | 8.7 | 0.00 | 0.00 | 0.00 | 66 | 1013.2 |
| 20260903235750 | 87 | 66 | 7.0 | 8.7 | 0.00 | 0.00 | 0.00 | 65 | 1013.2 |
| 20260903235247 | 87 | 82 | 8.7 | 11.3 | 0.00 | 0.00 | 0.00 | 66 | 1013.1 |
| 20260903234746 | 87 | 73 | 5.2 | 7.8 | 0.00 | 0.00 | 0.00 | 66 | 1013.1 |
| 20260903234243 | 88 | 40 | 5.2 | 7.0 | 0.00 | 0.00 | 0.00 | 65 | 1013.2 |
| 20260903233738 | 88 | 104 | 6.1 | 8.7 | 0.00 | 0.00 | 0.00 | 65 | 1013.0 |
| 20260903233234 | 88 | 110 | 10.4 | 14.8 | 0.00 | 0.00 | 0.00 | 65 | 1012.8 |
| 20260903232732 | 88 | 76 | 8.7 | 11.3 | 0.00 | 0.00 | 0.00 | 65 | 1012.8 |
| 20260903232229 | 88 | 59 | 10.4 | 13.9 | 0.00 | 0.00 | 0.00 | 65 | 1012.9 |
| 20260903231728 | 88 | 145 | 8.7 | 12.2 | 0.00 | 0.00 | 0.00 | 66 | 1013.0 |
| 20260903231223 | 89 | 116 | 9.6 | 11.3 | 0.00 | 0.00 | 0.00 | 66 | 1013.0 |
| 20260903230720 | 89 | 127 | 13.0 | 14.8 | 0.00 | 0.00 | 0.00 | 65 | 1012.9 |
| 20260903230220 | 89 | 63 | 8.7 | 15.6 | 0.00 | 0.00 | 0.00 | 65 | 1012.9 |
| 20260903225716 | 90 | 88 | 7.0 | 9.6 | 0.00 | 0.00 | 0.00 | 64 | 1012.7 |
| 20260903225212 | 91 | 142 | 7.8 | 9.6 | 0.00 | 0.00 | 0.00 | 64 | 1012.6 |
| 20260903224708 | 91 | 133 | 2.6 | 6.1 | 0.00 | 0.00 | 0.00 | 65 | 1012.6 |
| 20260903224204 | 91 | 78 | 8.7 | 12.2 | 0.00 | 0.00 | 0.00 | 65 | 1012.5 |
| 20260903223659 | 91 | 151 | 3.5 | 5.2 | 0.00 | 0.00 | 0.00 | 66 | 1012.4 |
| 20260903223157 | 92 | 67 | 13.0 | 19.1 | 0.00 | 0.00 | 0.00 | 64 | 1012.3 |
| 20260903222652 | 92 | 78 | 13.0 | 18.2 | 0.00 | 0.00 | 0.00 | 62 | 1012.5 |
| 20260903222150 | 92 | 97 | 15.6 | 20.9 | 0.00 | 0.00 | 0.00 | 62 | 1012.2 |
| 20260903221646 | 93 | 108 | 5.2 | 6.1 | 0.00 | 0.00 | 0.00 | 62 | 1012.4 |
| 20260903221144 | 93 | 117 | 11.3 | 13.9 | 0.00 | 0.00 | 0.00 | 61 | 1012.4 |
| 20260903220643 | 92 | 83 | 7.8 | 8.7 | 0.00 | 0.00 | 0.00 | 60 | 1012.5 |
| 20260903220138 | 93 | 77 | 10.4 | 15.6 | 0.00 | 0.00 | 0.00 | 61 | 1012.2 |
| 20260903215637 | 93 | 89 | 5.2 | 8.7 | 0.00 | 0.00 | 0.00 | 59 | 1012.4 |
| 20260903215133 | 94 | 71 | 6.1 | 11.3 | 0.00 | 0.00 | 0.00 | 56 | 1012.2 |
| 20260903214631 | 93 | 78 | 7.0 | 11.3 | 0.00 | 0.00 | 0.00 | 55 | 1012.3 |
| 20260903214127 | 93 | 65 | 4.3 | 7.0 | 0.00 | 0.00 | 0.00 | 56 | 1012.5 |
| 20260903213621 | 94 | 121 | 3.5 | 5.2 | 0.00 | 0.00 | 0.00 | 56 | 1012.5 |
| 20260903213117 | 93 | 88 | 8.7 | 12.2 | 0.00 | 0.00 | 0.00 | 57 | 1012.4 |
| 20260903212613 | 93 | 100 | 7.0 | 8.7 | 0.00 | 0.00 | 0.00 | 56 | 1012.6 |
| 20260903212108 | 94 | 116 | 6.1 | 8.7 | 0.00 | 0.00 | 0.00 | 55 | 1012.3 |
| 20260903211603 | 94 | 50 | 3.5 | 7.8 | 0.00 | 0.00 | 0.00 | 55 | 1012.5 |
| 20260903211100 | 94 | 92 | 8.7 | 11.3 | 0.00 | 0.00 | 0.00 | 53 | 1012.5 |
| 20260903210555 | 95 | 52 | 6.1 | 9.6 | 0.00 | 0.00 | 0.00 | 53 | 1012.7 |
| 20260903210050 | 94 | 83 | 9.6 | 13.0 | 0.00 | 0.00 | 0.00 | 53 | 1012.8 |
| 20260903205549 | 95 | 78 | 7.8 | 11.3 | 0.00 | 0.00 | 0.00 | 54 | 1012.7 |
| 20260903205044 | 94 | 83 | 3.5 | 5.2 | 0.00 | 0.00 | 0.00 | 54 | 1012.8 |
| 20260903204540 | 94 | 119 | 7.0 | 8.7 | 0.00 | 0.00 | 0.00 | 56 | 1012.8 |
| 20260903204035 | 94 | 51 | 8.7 | 13.9 | 0.00 | 0.00 | 0.00 | 55 | 1012.9 |
| 20260903203531 | 95 | 86 | 5.2 | 8.7 | 0.00 | 0.00 | 0.00 | 54 | 1013.1 |
| 20260903203030 | 95 | 94 | 7.0 | 9.6 | 0.00 | 0.00 | 0.00 | 53 | 1013.0 |
| 20260903202526 | 95 | 68 | 4.3 | 7.0 | 0.00 | 0.00 | 0.00 | 54 | 1013.1 |
| 20260903202021 | 95 | 127 | 4.3 | 5.2 | 0.00 | 0.00 | 0.00 | 54 | 1013.1 |
| 20260903201516 | 95 | 70 | 9.6 | 13.9 | 0.00 | 0.00 | 0.00 | 54 | 1013.4 |
| 20260903201015 | 95 | 79 | 7.8 | 9.6 | 0.00 | 0.00 | 0.00 | 53 | 1013.4 |
| 20260903200510 | 96 | 107 | 3.5 | 6.1 | 0.00 | 0.00 | 0.00 | 51 | 1013.2 |
| 20260903200005 | 95 | 71 | 0.9 | 1.7 | 0.00 | 0.00 | 0.00 | 54 | 1013.5 |
| 20260903195501 | 96 | 99 | 7.0 | 11.3 | 0.00 | 0.00 | 0.00 | 53 | 1013.4 |
| 20260903194956 | 96 | 63 | 5.2 | 8.7 | 0.00 | 0.00 | 0.00 | 51 | 1013.5 |
| 20260903194451 | 95 | 108 | 4.3 | 5.2 | 0.00 | 0.00 | 0.00 | 52 | 1013.5 |
| 20260903193947 | 95 | 71 | 1.7 | 2.6 | 0.00 | 0.00 | 0.00 | 53 | 1013.6 |
| 20260903193443 | 95 | 68 | 3.5 | 5.2 | 0.00 | 0.00 | 0.00 | 53 | 1013.5 |
| 20260903192938 | 95 | 79 | 3.5 | 7.0 | 0.00 | 0.00 | 0.00 | 54 | 1013.8 |
| 20260903192435 | 94 | 142 | 6.1 | 7.8 | 0.00 | 0.00 | 0.00 | 52 | 1013.8 |
| 20260903191930 | 93 | 104 | 5.2 | 7.0 | 0.00 | 0.00 | 0.00 | 54 | 1013.9 |
| 20260903191426 | 93 | 131 | 0.9 | 2.6 | 0.00 | 0.00 | 0.00 | 54 | 1013.9 |
| 20260903190925 | 93 | 88 | 3.5 | 5.2 | 0.00 | 0.00 | 0.00 | 55 | 1014.1 |
| 20260903190425 | 93 | 171 | 2.6 | 5.2 | 0.00 | 0.00 | 0.00 | 54 | 1014.1 |
| 20260903185920 | 93 | 74 | 1.7 | 2.6 | 0.00 | 0.00 | 0.00 | 56 | 1014.3 |
| 20260903185415 | 94 | 137 | 4.3 | 6.1 | 0.00 | 0.00 | 0.00 | 55 | 1014.5 |
| 20260903184909 | 94 | 117 | 2.6 | 2.6 | 0.00 | 0.00 | 0.00 | 54 | 1014.5 |
| 20260903184406 | 93 | 202 | 4.3 | 6.1 | 0.00 | 0.00 | 0.00 | 54 | 1014.6 |
| 20260903183906 | 93 | 145 | 1.7 | 1.7 | 0.00 | 0.00 | 0.00 | 53 | 1014.7 |
| 20260903183401 | 94 | 130 | 5.2 | 7.0 | 0.00 | 0.00 | 0.00 | 53 | 1014.6 |
| 20260903182855 | 94 | 6 | 0.0 | 0.0 | 0.00 | 0.00 | 0.00 | 54 | 1014.7 |
| 20260903182354 | 95 | 163 | 2.6 | 2.6 | 0.00 | 0.00 | 0.00 | 52 | 1014.7 |
| 20260903181849 | 95 | 154 | 4.3 | 6.1 | 0.00 | 0.00 | 0.00 | 53 | 1014.7 |
| 20260903181343 | 93 | 60 | 1.7 | 1.7 | 0.00 | 0.00 | 0.00 | 55 | 1014.9 |
| 20260903180838 | 93 | 143 | 1.7 | 1.7 | 0.00 | 0.00 | 0.00 | 55 | 1015.0 |
| 20260903180337 | 91 | 112 | 3.5 | 6.1 | 0.00 | 0.00 | 0.00 | 58 | 1015.1 |
| 20260903175832 | 92 | 177 | 3.5 | 3.5 | 0.00 | 0.00 | 0.00 | 58 | 1015.3 |
| 20260903175331 | 92 | 139 | 5.2 | 7.8 | 0.00 | 0.00 | 0.00 | 56 | 1015.4 |
| 20260903174825 | 91 | 44 | 1.7 | 1.7 | 0.00 | 0.00 | 0.00 | 58 | 1015.4 |
| 20260903174321 | 92 | 99 | 7.8 | 8.7 | 0.00 | 0.00 | 0.00 | 58 | 1015.5 |
| 20260903173815 | 91 | 79 | 1.7 | 1.7 | 0.00 | 0.00 | 0.00 | 59 | 1015.4 |
| 20260903173311 | 92 | 94 | 4.3 | 5.2 | 0.00 | 0.00 | 0.00 | 57 | 1015.5 |
| 20260903172807 | 91 | 41 | 2.6 | 3.5 | 0.00 | 0.00 | 0.00 | 61 | 1015.4 |
| 20260903172301 | 92 | 127 | 1.7 | 2.6 | 0.00 | 0.00 | 0.00 | 59 | 1015.5 |
| 20260903171756 | 92 | 186 | 2.6 | 5.2 | 0.00 | 0.00 | 0.00 | 57 | 1015.6 |
| 20260903171252 | 91 | 215 | 6.1 | 8.7 | 0.00 | 0.00 | 0.00 | 58 | 1015.5 |
| 20260903170750 | 90 | 191 | 2.6 | 3.5 | 0.00 | 0.00 | 0.00 | 60 | 1015.6 |
| 20260903170246 | 90 | 221 | 1.7 | 1.7 | 0.00 | 0.00 | 0.00 | 62 | 1015.6 |
| 20260903165744 | 90 | 181 | 8.7 | 11.3 | 0.00 | 0.00 | 0.00 | 62 | 1015.7 |
| 20260903165239 | 90 | 188 | 7.0 | 8.7 | 0.00 | 0.00 | 0.00 | 62 | 1015.6 |
| 20260903164739 | 89 | 86 | 6.1 | 7.8 | 0.00 | 0.00 | 0.00 | 63 | 1015.7 |
| 20260903164235 | 89 | 199 | 7.0 | 8.7 | 0.00 | 0.00 | 0.00 | 65 | 1015.4 |
| 20260903163734 | 89 | 195 | 7.0 | 7.8 | 0.00 | 0.00 | 0.00 | 64 | 1015.6 |
| 20260903163231 | 89 | 144 | 5.2 | 7.0 | 0.00 | 0.00 | 0.00 | 65 | 1015.5 |
| 20260903162726 | 89 | 168 | 9.6 | 12.2 | 0.00 | 0.00 | 0.00 | 65 | 1015.6 |
| 20260903162222 | 90 | 138 | 5.2 | 7.0 | 0.00 | 0.00 | 0.00 | 64 | 1015.6 |
| 20260903161718 | 88 | 210 | 4.3 | 5.2 | 0.00 | 0.00 | 0.00 | 65 | 1015.5 |
| 20260903161213 | 88 | 165 | 7.0 | 8.7 | 0.00 | 0.00 | 0.00 | 66 | 1015.5 |
| 20260903160709 | 88 | 177 | 8.7 | 9.6 | 0.00 | 0.00 | 0.00 | 66 | 1015.4 |
| 20260903160202 | 88 | 193 | 9.6 | 11.3 | 0.00 | 0.00 | 0.00 | 66 | 1015.5 |
| 20260903155701 | 88 | 178 | 8.7 | 8.7 | 0.00 | 0.00 | 0.00 | 67 | 1015.5 |
| 20260903155156 | 88 | 211 | 6.1 | 7.8 | 0.00 | 0.00 | 0.00 | 67 | 1015.4 |
| 20260903154652 | 88 | 212 | 2.6 | 3.5 | 0.00 | 0.00 | 0.00 | 66 | 1015.5 |
| 20260903154148 | 87 | 230 | 7.0 | 8.7 | 0.00 | 0.00 | 0.00 | 69 | 1015.6 |
| 20260903153644 | 87 | 155 | 8.7 | 11.3 | 0.00 | 0.00 | 0.00 | 69 | 1015.5 |
| 20260903153139 | 86 | 217 | 7.0 | 8.7 | 0.00 | 0.00 | 0.00 | 70 | 1015.5 |
| 20260903152635 | 86 | 157 | 6.1 | 7.8 | 0.00 | 0.00 | 0.00 | 71 | 1015.4 |
| 20260903152131 | 86 | 201 | 5.2 | 7.8 | 0.00 | 0.00 | 0.00 | 70 | 1015.5 |
| 20260903151630 | 86 | 221 | 6.1 | 7.8 | 0.00 | 0.00 | 0.00 | 72 | 1015.3 |
| 20260903151125 | 86 | 146 | 3.5 | 5.2 | 0.00 | 0.00 | 0.00 | 73 | 1015.5 |
| 20260903150620 | 86 | 175 | 7.8 | 8.7 | 0.00 | 0.00 | 0.00 | 73 | 1015.3 |
| 20260903150115 | 86 | 176 | 7.8 | 9.6 | 0.00 | 0.00 | 0.00 | 71 | 1015.3 |
| 20260903145615 | 86 | 203 | 5.2 | 7.8 | 0.00 | 0.00 | 0.00 | 73 | 1015.4 |
| 20260903145110 | 85 | 199 | 7.0 | 8.7 | 0.00 | 0.00 | 0.00 | 75 | 1015.5 |